Franktown, CO

11:12 AM MST on February 07, 2016 (GMT -0700)
Monument Pass

Weather History for KMNH - October, 2012

Change the Weather History Date:

Monday, October 1, 2012

  Actual Average Record
Temperature  
Mean Temperature 49 °F -  
Max Temperature 59 °F - 80 °F (2005)
Min Temperature 39 °F - 32 °F (2003)
Degree Days  
Heating Degree Days 16    
Month to date heating degree days  
Cooling Degree Days 0    
Month to date cooling degree days  
Moisture  
Dew Point 37 °F    
Average Humidity 67    
Maximum Humidity 100    
Minimum Humidity 41    
Precipitation  
Precipitation 0.02 in - 0.03 in (2014)
Sea Level Pressure  
Sea Level Pressure 30.33 in    
Wind  
Wind Speed 10 mph (NNW)    
Max Wind Speed 16 mph    
Max Gust Speed 24 mph    
Visibility 10 miles    
Events Rain    
T = Trace of Precipitation, MM = Missing Value Source: NWS Daily Summary

Daily Weather History Graph

Daily Weather History Graph

Search for Another Location

Airport or City:

Trip Planner

Search our weather history database for the weather conditions in past years. The results will help you decide how hot, cold, wet, or windy it might be!

Date:

Astronomy

Oct. 01, 2012 Rise Set
Actual Time 6:55 AM MDT 6:40 PM MDT
Civil Twilight 6:28 AM MDT 7:06 PM MDT
Nautical Twilight 5:57 AM MDT 7:37 PM MDT
Astronomical Twilight 5:26 AM MDT 8:09 PM MDT
Moon 7:19 PM MDT (10/1) 8:25 AM MDT (10/1)
Length of Visible Light 12h 38m
Length of Day
11h 45m
Full, 97% of the Moon is Illuminated
Oct 1
Full
Oct 8
Last Quarter
Oct 15
New
Oct 21
First Quarter
Oct 29
Full

Hourly Weather History & Observations

Time (MDT) Temp. Windchill Dew Point Humidity Pressure Visibility Wind Dir Wind Speed Gust Speed Precip Events Conditions
12:00 AM 46.4 °F 42.9 °F 37.4 °F 71% 30.28 in 10.0 mi West 6.9 mph - N/A   Clear
12:27 AM 46.4 °F 42.4 °F 37.4 °F 71% 30.29 in 10.0 mi WNW 8.1 mph - N/A   Clear
12:42 AM 46.4 °F 41.9 °F 37.4 °F 71% 30.29 in 10.0 mi WNW 9.2 mph - N/A   Scattered Clouds
1:06 AM 48.2 °F - 37.4 °F 66% 30.30 in 10.0 mi NW 10.4 mph 20.7 mph N/A   Scattered Clouds
1:29 AM 48.2 °F - 37.4 °F 66% 30.30 in 10.0 mi NW 10.4 mph - N/A   Scattered Clouds
1:48 AM 44.6 °F 39.2 °F 37.4 °F 76% 30.30 in 10.0 mi WNW 10.4 mph - N/A   Scattered Clouds
2:10 AM 44.6 °F 39.2 °F 37.4 °F 76% 30.30 in 10.0 mi NW 10.4 mph - N/A   Clear
2:19 AM 44.6 °F 38.8 °F 37.4 °F 76% 30.30 in 10.0 mi NW 11.5 mph - N/A   Clear
2:45 AM 46.4 °F 41.5 °F 37.4 °F 71% 30.30 in 10.0 mi NW 10.4 mph - N/A   Clear
2:57 AM 46.4 °F 41.1 °F 37.4 °F 71% 30.31 in 10.0 mi NW 11.5 mph - N/A   Clear
3:21 AM 46.4 °F 40.7 °F 37.4 °F 71% 30.32 in 10.0 mi NW 12.7 mph - N/A   Scattered Clouds
3:47 AM 44.6 °F 38.8 °F 37.4 °F 76% 30.33 in 10.0 mi NW 11.5 mph - N/A   Mostly Cloudy
4:07 AM 44.6 °F 38.8 °F 37.4 °F 76% 30.34 in 10.0 mi NW 11.5 mph - N/A   Overcast
4:21 AM 46.4 °F 41.1 °F 37.4 °F 71% 30.35 in 10.0 mi NW 11.5 mph - N/A   Overcast
4:38 AM 46.4 °F 41.1 °F 37.4 °F 71% 30.35 in 10.0 mi NNW 11.5 mph - N/A   Overcast
5:00 AM 46.4 °F 41.1 °F 37.4 °F 71% 30.36 in 10.0 mi NNW 11.5 mph - N/A   Overcast
5:31 AM 44.6 °F 39.7 °F 41.0 °F 87% 30.37 in 10.0 mi NNW 9.2 mph 19.6 mph N/A Rain Light Rain
5:46 AM 44.6 °F 38.4 °F 41.0 °F 87% 30.38 in 10.0 mi North 12.7 mph 18.4 mph N/A Rain Light Rain
6:01 AM 44.6 °F 38.8 °F 41.0 °F 87% 30.38 in 10.0 mi North 11.5 mph 17.3 mph N/A Rain Light Rain
6:18 AM 44.6 °F 38.4 °F 41.0 °F 87% 30.39 in 10.0 mi North 12.7 mph - 0.01 in Rain Rain
6:50 AM 42.8 °F 38.0 °F 41.0 °F 93% 30.40 in 10.0 mi NNW 8.1 mph - 0.02 in   Light Drizzle
6:56 AM 42.8 °F 38.6 °F 41.0 °F 93% 30.40 in 10.0 mi NNW 6.9 mph - N/A   Overcast
7:30 AM 42.8 °F 37.5 °F 42.8 °F 100% 30.41 in 10.0 mi WNW 9.2 mph - N/A   Overcast
7:51 AM 42.8 °F 37.5 °F 42.8 °F 100% 30.41 in 10.0 mi NW 9.2 mph - N/A Rain Light Rain
7:59 AM 42.8 °F 37.5 °F 42.8 °F 100% 30.41 in 10.0 mi NW 9.2 mph - N/A Rain Light Rain
8:31 AM 44.6 °F 39.7 °F 42.8 °F 93% 30.41 in 10.0 mi NW 9.2 mph - N/A   Overcast
8:47 AM 44.6 °F 39.7 °F 42.8 °F 93% 30.41 in 7.0 mi WNW 9.2 mph - N/A   Light Drizzle
9:09 AM 46.4 °F 41.5 °F 42.8 °F 87% 30.40 in 10.0 mi WNW 10.4 mph - N/A   Overcast
9:17 AM 46.4 °F 41.1 °F 42.8 °F 87% 30.41 in 10.0 mi WNW 11.5 mph - N/A   Mostly Cloudy
9:50 AM 50.0 °F - 41.0 °F 71% 30.40 in 10.0 mi NW 11.5 mph - N/A   Mostly Cloudy
10:02 AM 50.0 °F - 39.2 °F 66% 30.40 in 10.0 mi NNW 12.7 mph 21.9 mph N/A   Scattered Clouds
10:31 AM 51.8 °F - 39.2 °F 62% 30.40 in 10.0 mi NNW 15.0 mph 19.6 mph N/A   Clear
10:39 AM 51.8 °F - 39.2 °F 62% 30.40 in 10.0 mi NNW 13.8 mph 20.7 mph N/A   Clear
11:11 AM 53.6 °F - 39.2 °F 58% 30.39 in 10.0 mi North 13.8 mph 18.4 mph N/A   Scattered Clouds
11:27 AM 53.6 °F - 37.4 °F 54% 30.39 in 10.0 mi NNW 9.2 mph - N/A   Mostly Cloudy
11:59 AM 55.4 °F - 37.4 °F 51% 30.38 in 10.0 mi North 12.7 mph 18.4 mph N/A   Mostly Cloudy
12:31 PM 55.4 °F - 37.4 °F 51% 30.37 in 10.0 mi NNW 9.2 mph 17.3 mph N/A   Scattered Clouds
12:34 PM 55.4 °F - 37.4 °F 51% 30.37 in 10.0 mi North 9.2 mph - N/A   Scattered Clouds
1:11 PM 55.4 °F - 37.4 °F 51% 30.36 in 10.0 mi North 12.7 mph 18.4 mph N/A   Scattered Clouds
1:51 PM 59.0 °F - 37.4 °F 45% 30.34 in 10.0 mi North 13.8 mph 18.4 mph N/A   Scattered Clouds
2:06 PM 57.2 °F - 35.6 °F 44% 30.34 in 10.0 mi NNE 11.5 mph 18.4 mph N/A   Scattered Clouds
2:26 PM 59.0 °F - 35.6 °F 42% 30.33 in 10.0 mi North 15.0 mph 21.9 mph N/A   Scattered Clouds
2:34 PM 59.0 °F - 35.6 °F 42% 30.33 in 10.0 mi NNE 15.0 mph 21.9 mph N/A   Scattered Clouds
3:09 PM 59.0 °F - 35.6 °F 42% 30.33 in 10.0 mi NNE 16.1 mph 24.2 mph N/A   Mostly Cloudy
3:21 PM 59.0 °F - 35.6 °F 42% 30.32 in 10.0 mi North 11.5 mph 21.9 mph N/A   Scattered Clouds
3:59 PM 57.2 °F - 33.8 °F 41% 30.32 in 10.0 mi NNE 16.1 mph - N/A   Scattered Clouds
4:17 PM 57.2 °F - 33.8 °F 41% 30.32 in 10.0 mi North 11.5 mph - N/A   Scattered Clouds
4:37 PM 57.2 °F - 33.8 °F 41% 30.31 in 10.0 mi NNE 9.2 mph 16.1 mph N/A   Mostly Cloudy
5:06 PM 57.2 °F - 33.8 °F 41% 30.31 in 10.0 mi NNE 10.4 mph - N/A   Scattered Clouds
5:16 PM 55.4 °F - 33.8 °F 44% 30.31 in 10.0 mi NNE 9.2 mph - N/A   Scattered Clouds
5:39 PM 53.6 °F - 33.8 °F 47% 30.30 in 10.0 mi NNE 10.4 mph - N/A   Clear
5:57 PM 53.6 °F - 33.8 °F 47% 30.30 in 10.0 mi NNE 9.2 mph - N/A   Scattered Clouds
6:22 PM 51.8 °F - 33.8 °F 50% 30.29 in 10.0 mi NNE 6.9 mph - N/A   Clear
6:46 PM 50.0 °F - 35.6 °F 58% 30.29 in 10.0 mi NE 4.6 mph - N/A   Clear
6:57 PM 48.2 °F - 35.6 °F 62% 30.29 in 10.0 mi NE 5.8 mph - N/A   Clear
7:22 PM 50.0 °F - 33.8 °F 54% 30.29 in 10.0 mi NNE 6.9 mph - N/A   Clear
7:50 PM 46.4 °F - 35.6 °F 66% 30.29 in 10.0 mi Calm Calm - N/A   Clear
7:55 PM 46.4 °F 45.2 °F 33.8 °F 62% 30.29 in 10.0 mi ENE 3.5 mph - N/A   Clear
8:19 PM 46.4 °F 44.3 °F 33.8 °F 62% 30.29 in 10.0 mi SE 4.6 mph - N/A   Clear
8:45 PM 46.4 °F 43.5 °F 33.8 °F 62% 30.30 in 10.0 mi SSE 5.8 mph - N/A   Clear
8:58 PM 42.8 °F 39.3 °F 35.6 °F 76% 30.29 in 10.0 mi SSE 5.8 mph - N/A   Clear
9:30 PM 41.0 °F 35.8 °F 33.8 °F 76% 30.29 in 10.0 mi South 8.1 mph - N/A   Clear
9:58 PM 39.2 °F 33.6 °F 33.8 °F 81% 30.29 in 10.0 mi South 8.1 mph - N/A   Clear
10:19 PM 41.0 °F 35.2 °F 33.8 °F 76% 30.28 in 10.0 mi South 9.2 mph - N/A   Clear
10:51 PM 41.0 °F 35.8 °F 33.8 °F 76% 30.27 in 10.0 mi South 8.1 mph - N/A   Clear
10:58 PM 41.0 °F 35.2 °F 33.8 °F 76% 30.27 in 10.0 mi South 9.2 mph - N/A   Clear
11:17 PM 41.0 °F 35.8 °F 32.0 °F 70% 30.27 in 10.0 mi South 8.1 mph - N/A   Clear
11:38 PM 41.0 °F 36.4 °F 32.0 °F 70% 30.27 in 10.0 mi SSW 6.9 mph - N/A   Clear
11:59 PM 41.0 °F 35.2 °F 32.0 °F 70% 30.27 in 10.0 mi SSW 9.2 mph - N/A   Clear